Lapse_Rate
5.0 5.2 5.4 5.6 5.4 5.4 5.6 5.9 6.1 6.1 6.3 6.4 6.2 6.3 6.3 6.3 6.6 6.7 6.8 7.0 7.0 7.1 7.0 7.0 7.1 7.1 7.0 6.9 7.0 6.9 7.1 7.0 7.1 7.4 6.8 6.8 6.9 5.9 5.7 6.8 7.1 6.9 6.8
5.3 5.2 5.4 5.2 5.3 5.9 6.2 6.3 6.4 6.5 6.8 6.9 6.8 6.4 6.4 6.5 6.6 6.8 7.1 6.9 6.9 6.9 7.0 6.5 6.5 6.2 6.7 6.7 6.7 6.7 6.6 6.5 6.6 6.7 6.6 6.8 6.3 6.4 6.0 6.1 6.2 6.6 6.5
5.1 5.3 5.8 5.4 6.2 6.3 6.5 6.5 6.8 6.9 6.9 6.6 6.4 6.4 6.6 6.6 6.8 6.7 6.5 6.7 6.7 6.5 6.2 6.1 6.0 6.1 6.0 6.0 6.2 6.1 6.3 6.2 6.0 6.1 6.5 6.6 6.7 6.5 6.5 6.4 6.0 6.1 6.1
5.0 4.8 5.4 5.4 5.7 6.0 6.6 6.3 6.7 6.6 6.6 6.4 6.3 6.4 6.5 6.5 6.2 6.2 6.5 6.6 6.4 6.3 6.5 6.5 6.3 6.0 5.8 5.7 5.8 5.8 5.6 5.7 6.0 6.0 6.0 6.1 6.3 6.4 6.4 6.4 6.4 6.1 6.0
5.5 5.5 5.0 5.1 4.7 5.9 6.6 6.5 6.8 6.6 6.3 6.2 6.1 6.3 6.2 6.1 5.7 6.1 6.6 6.6 6.3 6.4 6.8 6.9 6.9 6.8 6.5 6.2 5.7 5.5 5.5 5.7 5.8 5.9 6.0 6.0 6.1 6.2 6.0 5.6 5.5 5.6 5.6
5.4 5.9 6.0 6.8 6.3 6.4 6.7 7.1 6.9 6.5 6.3 6.2 6.3 6.2 6.0 6.1 6.0 6.4 6.6 6.6 6.8 6.9 6.9 7.0 7.0 7.1 7.0 6.6 6.1 5.8 5.4 5.6 5.8 5.8 5.8 5.9 5.9 5.9 5.8 5.8 5.8 5.8 5.8
5.5 5.4 6.3 7.1 7.6 7.4 7.5 7.8 7.4 6.9 6.8 6.6 6.2 6.1 6.2 6.1 6.0 6.2 6.5 6.6 6.7 6.6 6.7 6.6 6.7 6.8 6.8 6.7 6.3 6.2 6.0 5.9 5.7 5.8 5.6 5.6 5.6 5.7 5.6 5.4 5.2 5.1 5.2
5.8 5.8 7.0 7.3 7.8 7.3 7.7 8.0 7.9 7.2 6.9 6.3 6.3 6.3 6.2 6.2 6.3 6.4 6.7 6.8 6.5 6.6 6.6 6.6 6.6 6.7 6.7 6.7 6.5 6.7 6.4 5.7 5.5 5.2 5.2 5.4 5.3 5.5 5.4 5.4 5.4 5.3 5.3
5.7 6.1 7.3 8.0 7.8 7.3 7.4 7.7 7.8 7.2 6.6 6.3 6.4 6.2 6.2 6.5 6.6 6.8 6.8 6.6 6.4 6.6 6.7 6.8 6.8 6.9 6.8 6.8 6.7 6.6 6.4 5.9 5.1 4.9 5.0 5.3 5.3 5.2 5.3 5.2 5.4 5.3 5.5
5.7 6.6 7.1 7.2 8.1 7.6 7.5 7.6 7.4 6.9 6.4 6.5 6.5 6.5 6.7 6.7 6.9 6.6 6.6 6.6 6.5 6.6 6.8 6.8 6.8 6.6 6.9 6.8 6.5 6.2 6.2 5.5 5.0 4.9 4.8 4.9 5.1 5.3 5.3 5.4 5.4 5.5 5.4
6.4 6.4 6.9 7.3 7.7 7.4 7.8 7.8 7.1 6.6 6.5 6.5 6.7 6.8 6.8 6.9 6.8 6.5 6.6 6.5 6.6 6.8 6.8 6.8 6.6 6.4 6.1 6.5 6.2 6.1 5.7 5.3 5.1 4.9 5.0 5.2 5.3 5.4 5.5 5.4 5.4 5.3 5.3
6.4 6.8 6.9 7.3 7.6 7.8 7.5 7.2 6.7 6.6 6.8 6.6 6.7 6.9 7.1 6.9 6.6 6.5 6.7 6.6 6.6 6.6 6.7 6.7 6.6 6.5 6.5 6.4 6.3 6.1 5.7 5.3 5.0 5.0 4.9 4.9 4.9 4.9 4.9 5.1 5.3 5.3 5.3
6.8 7.1 7.3 7.6 7.5 7.2 7.0 6.8 7.1 7.0 6.7 6.6 6.7 7.0 7.1 6.9 6.7 6.7 6.6 6.5 6.4 6.5 6.4 6.4 6.4 6.4 6.3 6.2 5.9 5.6 5.2 4.8 4.7 4.7 4.7 4.7 4.8 4.9 4.8 4.8 4.8 4.9 5.1
7.3 7.4 7.4 7.3 7.0 7.1 7.1 7.1 7.1 7.0 6.7 6.8 6.9 7.0 7.1 7.0 6.8 6.8 6.7 6.6 6.5 6.5 6.4 6.3 6.3 6.1 6.0 5.6 5.3 5.0 4.7 4.6 4.5 4.5 4.6 4.6 4.6 4.6 4.7 4.6 4.5 4.5 4.6
7.5 7.4 7.1 6.9 6.9 7.1 7.1 7.3 7.1 6.9 6.9 6.9 6.8 6.9 7.1 7.0 6.8 6.6 6.7 6.7 6.6 6.4 6.3 6.2 6.2 6.1 5.9 5.7 5.2 5.0 4.8 4.6 4.5 4.5 4.5 4.6 4.7 4.6 4.6 4.6 4.6 4.6 4.5
7.4 7.2 6.9 7.0 7.1 7.2 7.3 7.2 7.0 7.0 6.9 6.9 7.0 7.3 7.1 6.9 6.8 6.6 6.5 6.6 6.5 6.3 6.3 6.3 6.2 6.1 6.0 5.9 5.7 5.4 5.2 4.9 4.7 4.8 4.8 4.8 4.8 4.7 4.7 4.9 5.0 4.9 4.7
7.3 7.1 7.0 7.0 7.1 7.2 7.3 7.2 7.2 7.0 6.8 6.9 7.0 7.1 7.1 7.1 6.8 6.6 6.5 6.6 6.6 6.4 6.3 6.2 6.1 6.1 6.1 5.9 5.8 5.6 5.4 5.3 5.1 5.2 5.1 5.0 4.9 4.9 5.1 5.1 5.2 5.2 5.2
7.3 7.1 7.1 7.1 7.0 7.2 7.3 7.2 7.2 7.0 6.9 6.7 6.8 6.9 7.1 7.0 6.7 6.6 6.5 6.5 6.6 6.5 6.4 6.3 6.0 5.8 5.9 6.0 6.0 5.9 5.8 5.6 5.6 5.6 5.5 5.3 5.2 5.2 5.3 5.3 5.4 5.4 5.4
7.4 7.3 7.1 7.1 7.1 7.1 7.3 7.3 7.3 7.1 6.9 6.8 6.8 6.7 6.8 6.9 6.9 6.8 6.6 6.4 6.5 6.5 6.4 6.3 6.2 5.9 5.8 6.0 6.0 6.0 5.9 5.9 5.9 5.9 5.8 5.8 5.7 5.6 5.5 5.5 5.6 5.7 5.7
7.2 7.4 7.2 7.2 7.2 7.2 7.3 7.3 7.3 7.1 6.9 6.8 6.9 6.7 6.8 6.9 7.0 6.8 6.6 6.4 6.3 6.2 6.2 6.2 6.1 6.0 5.9 6.2 6.2 6.1 6.1 6.1 6.0 6.0 6.0 6.0 6.1 6.0 5.9 5.8 5.8 5.9 5.9
7.3 7.3 7.3 7.3 7.3 7.3 7.3 7.4 7.3 7.2 7.0 6.9 6.9 6.9 6.7 6.7 6.8 7.0 6.8 6.6 6.4 6.2 6.1 6.0 5.9 5.8 5.9 6.1 6.2 6.2 6.1 6.1 6.1 6.1 6.0 6.0 6.2 6.3 6.3 6.2 6.2 6.2 6.2
7.3 7.3 7.3 7.4 7.4 7.3 7.3 7.4 7.4 7.3 7.2 7.1 7.0 6.9 6.9 6.8 6.8 6.9 6.9 6.7 6.5 6.3 6.1 5.9 5.8 5.8 5.8 5.9 6.0 6.1 6.2 6.2 6.2 6.2 6.2 6.1 6.1 6.3 6.4 6.4 6.4 6.4 6.3
7.3 7.3 7.4 7.5 7.5 7.4 7.4 7.4 7.4 7.4 7.3 7.2 7.2 7.1 7.0 6.9 6.8 6.8 6.9 6.9 6.8 6.6 6.3 6.1 5.9 5.8 5.7 5.7 5.8 5.9 6.0 6.1 6.2 6.2 6.2 6.2 6.2 6.4 6.3 6.3 6.4 6.4 6.5
7.3 7.3 7.4 7.4 7.4 7.4 7.4 7.4 7.5 7.5 7.4 7.4 7.3 7.2 7.2 7.1 6.9 6.9 6.9 6.9 7.0 6.9 6.7 6.4 6.2 6.0 5.8 5.7 5.7 5.7 5.8 6.0 6.1 6.1 6.2 6.2 6.2 6.3 6.3 6.4 6.4 6.3 6.3
7.3 7.3 7.3 7.3 7.4 7.4 7.4 7.4 7.5 7.5 7.4 7.4 7.4 7.4 7.3 7.3 7.1 7.0 6.9 6.9 7.0 7.1 7.0 6.8 6.6 6.3 6.1 6.0 5.9 5.8 5.8 5.9 5.9 6.0 6.1 6.1 6.2 6.2 6.3 6.3 6.3 6.4 6.4
7.3 7.2 7.3 7.3 7.4 7.4 7.4 7.5 7.5 7.5 7.5 7.5 7.5 7.5 7.5 7.4 7.3 7.1 7.0 7.0 6.9 7.0 7.1 7.1 7.0 6.8 6.5 6.4 6.2 6.1 6.0 6.0 6.0 6.0 6.0 6.1 6.1 6.1 6.2 6.2 6.3 6.4 6.4
Wind_Speed
5 5 5 4 4 4 4 5 5 5 6 8 8 8 9 7 5 4 6 8 7 8 7 7 8 9 7 7 6 7 4 3 7 6 4 4 4 3 6 14 16 18 9
5 6 6 5 6 6 6 6 5 5 6 7 7 8 7 7 7 6 7 7 8 8 8 8 8 7 6 5 5 7 5 6 6 10 4 4 5 5 4 4 6 10 8
5 6 6 4 5 6 6 3 5 6 6 7 7 8 8 8 8 7 8 7 9 11 12 13 13 8 6 5 5 5 5 6 7 8 7 4 4 4 5 4 5 5 10
8 6 5 2 1 3 3 5 5 6 6 6 6 7 7 9 10 7 8 9 8 9 11 13 14 12 9 8 6 5 5 5 8 8 9 8 6 6 5 5 5 3 4
10 13 7 5 5 3 3 4 5 5 6 6 7 7 7 7 5 5 7 7 8 10 10 12 13 16 21 11 6 6 5 4 4 7 8 8 7 5 5 4 5 3 3
9 13 10 11 5 5 3 4 5 5 5 6 6 6 6 7 7 9 9 8 10 11 12 13 13 17 15 14 10 12 11 8 8 7 7 8 10 9 7 5 3 3 3
13 5 6 5 6 5 6 2 5 5 6 6 6 5 5 6 7 9 9 6 8 10 12 12 12 10 14 11 11 14 5 9 7 8 10 10 10 10 10 9 5 4 4
14 8 4 5 7 5 4 2 3 4 6 6 4 5 5 6 14 13 8 7 7 8 11 13 13 13 11 12 9 7 8 7 6 7 9 12 11 11 9 8 7 7 5
20 8 6 7 5 5 5 4 3 5 6 4 5 6 6 6 12 12 11 6 7 8 11 11 12 12 18 21 12 10 9 9 12 16 14 18 20 21 17 8 8 7 7
13 11 9 10 9 7 6 4 2 5 5 4 4 5 8 7 10 14 11 4 7 8 10 12 17 16 9 11 7 7 7 6 7 7 7 10 13 12 16 10 7 8 7
12 11 8 7 7 4 4 3 4 3 3 3 3 4 6 6 6 14 10 5 7 8 9 9 9 18 12 10 12 6 8 8 8 8 8 8 8 9 8 8 8 8 8
10 10 11 7 6 5 5 4 4 4 5 4 4 5 4 4 12 14 15 18 18 9 10 9 9 21 14 16 12 13 13 8 5 6 7 8 7 8 8 7 6 6 12
10 10 10 8 7 5 4 5 4 5 3 3 4 5 6 6 7 16 19 21 19 10 8 15 22 15 15 10 14 14 10 5 6 4 5 5 4 5 7 4 5 9 7
10 10 7 7 6 5 4 4 4 3 2 3 4 4 5 6 7 7 8 8 14 11 11 10 7 9 9 9 8 6 5 4 4 5 4 6 5 4 4 4 6 5 3
9 8 7 5 5 5 5 4 3 4 2 1 2 2 3 4 7 13 13 9 8 8 11 5 5 6 7 6 7 7 6 6 6 5 5 6 5 4 4 4 4 2 2
6 6 5 4 3 3 4 3 6 4 2 3 2 2 3 8 16 17 18 19 16 14 6 5 5 5 6 6 6 6 5 6 5 5 5 5 5 5 5 6 5 2 2
4 6 4 4 4 2 3 4 4 2 9 5 6 8 8 8 15 15 17 18 11 10 5 5 5 6 6 7 6 6 6 6 7 6 5 5 5 6 5 5 6 5 5
5 4 2 4 3 2 3 4 4 4 4 3 9 9 2 13 17 12 13 11 6 5 5 5 6 6 6 7 7 7 8 6 7 7 6 6 4 5 4 5 5 5 6
6 2 1 2 1 2 3 3 3 4 4 4 2 1 4 13 13 8 10 2 4 5 5 5 5 5 6 6 6 7 8 7 6 7 7 7 6 4 4 4 4 5 5
4 5 2 1 2 3 1 3 3 3 4 4 2 1 2 3 3 2 2 2 2 3 4 6 5 5 5 6 6 7 7 7 7 7 7 8 7 6 5 4 4 4 4
2 3 0 2 3 2 2 3 3 3 4 4 3 2 1 1 2 2 2 2 2 2 2 5 5 4 4 6 6 6 7 6 7 8 8 8 8 7 7 4 5 4 3
1 2 3 3 2 3 2 2 4 4 4 3 2 2 6 3 1 1 1 1 2 2 1 2 4 3 3 5 5 5 5 5 6 7 8 8 8 7 8 6 3 2 4
3 3 4 4 4 4 3 3 4 4 4 2 3 2 2 2 1 2 2 1 1 2 2 3 2 2 6 8 9 7 5 5 6 6 7 8 7 6 6 5 6 4 3
3 4 5 5 5 4 4 4 3 5 6 4 4 3 2 2 2 2 2 2 2 2 2 1 4 3 6 8 7 10 9 11 12 11 11 7 5 5 6 5 3 8 2
5 5 4 5 5 5 4 4 4 4 5 5 3 2 2 2 2 2 2 1 1 2 2 2 3 4 6 10 4 9 11 13 14 15 12 9 6 6 5 5 4 6 4
3 4 3 4 4 4 4 4 2 3 4 4 4 3 3 2 3 2 2 2 3 1 4 3 3 3 8 7 8 10 11 14 14 17 15 6 4 4 3 5 6 4 5
Wind_Direction
2 359 342 337 308 299 346 39 14 338 324 323 320 318 312 313 313 298 274 279 281 293 296 286 293 292 305 314 315 305 292 272 273 296 295 310 319 278 240 206 250 287 250
357 340 324 320 8 3 10 2 332 315 311 315 316 314 309 302 301 287 278 283 274 276 295 297 287 282 285 306 313 309 311 315 301 298 303 304 290 292 277 286 284 273 262
315 306 319 9 16 358 319 320 316 305 305 330 331 320 329 325 320 320 317 346 356 344 335 329 318 299 288 276 278 291 307 319 333 318 306 301 304 307 306 300 284 277 283
289 287 299 62 222 260 357 338 328 329 326 324 323 327 325 327 320 3 351 345 338 332 323 317 313 308 295 292 323 312 293 313 309 305 303 301 296 297 288 274 275 262 262
337 305 293 276 230 83 352 335 320 314 315 331 330 321 315 317 14 10 354 338 328 318 310 303 301 305 308 287 267 260 273 275 273 283 288 295 293 293 288 328 320 328 308
334 293 324 303 11 350 17 295 300 306 331 313 312 313 326 338 64 27 9 336 324 320 308 300 296 298 298 317 308 252 233 236 257 260 272 282 290 297 314 318 327 328 320
280 300 12 17 288 281 274 329 318 336 310 304 302 317 357 358 45 12 343 320 311 318 311 310 309 310 317 309 346 340 330 285 281 272 268 267 269 274 284 291 288 274 266
311 312 329 282 272 267 284 287 7 312 302 300 315 5 1 335 339 333 327 305 311 307 311 311 309 311 312 317 303 282 286 284 253 242 241 258 261 270 278 286 299 298 287
323 355 325 257 250 265 292 7 348 313 295 1 0 357 347 326 309 322 304 310 301 309 304 301 299 304 302 307 301 290 283 278 278 279 302 288 276 273 268 271 266 268 274
3 338 348 332 303 18 339 310 291 282 7 50 9 342 322 316 330 352 347 321 313 313 314 308 304 304 355 349 341 329 313 308 307 312 304 298 292 283 263 251 250 242 250
358 358 350 0 314 271 277 328 301 14 4 65 26 316 312 320 358 343 338 335 325 324 316 312 308 320 321 309 306 281 278 298 296 291 286 282 279 274 267 256 236 224 235
346 331 325 333 311 334 329 311 336 359 42 27 347 330 328 9 351 344 2 345 338 331 317 311 328 321 333 321 313 293 292 290 281 274 271 269 264 260 254 261 248 227 227
342 343 345 335 314 331 338 321 354 40 49 9 350 339 340 350 341 2 348 343 337 326 320 319 314 332 340 326 309 303 296 268 266 285 296 288 284 298 302 276 252 246 246
339 322 309 312 325 321 358 3 26 36 23 1 341 338 338 336 339 347 338 330 333 330 327 311 344 355 337 328 345 348 322 329 321 310 322 300 287 287 291 278 270 254 240
331 335 313 338 348 354 351 27 43 73 71 344 339 345 336 334 334 337 335 333 332 333 321 343 360 354 343 346 359 353 352 352 354 337 320 321 328 330 322 320 295 308 253
328 324 332 330 330 334 356 358 93 95 210 219 199 245 299 319 336 342 340 337 339 343 338 360 352 348 352 344 359 348 334 345 339 328 328 341 341 336 330 334 353 325 301
293 300 311 327 349 2 10 8 337 292 245 224 229 260 301 326 338 342 344 342 357 4 354 349 350 355 352 354 356 347 338 354 348 343 345 338 347 332 337 351 355 355 335
249 302 6 345 357 3 1 316 305 309 317 323 224 236 0 357 345 339 342 356 351 7 355 346 349 355 356 353 352 348 340 359 1 351 351 345 339 331 352 357 351 348 341
272 180 156 293 291 302 288 292 301 311 313 317 339 95 47 4 342 351 1 4 347 348 353 350 352 355 356 351 348 346 345 357 2 356 351 341 342 345 343 348 343 346 344
300 122 172 281 277 281 296 306 304 301 314 313 315 42 20 358 336 333 353 2 353 347 349 344 349 356 358 351 349 348 349 360 1 357 350 346 342 351 344 346 350 347 353
344 24 20 261 255 281 269 290 301 304 294 308 322 127 168 290 294 317 339 358 353 336 344 340 338 352 0 349 353 350 353 360 357 351 345 341 343 352 345 350 359 356 10
0 331 301 281 263 257 272 293 282 274 276 292 304 174 217 243 261 315 320 335 319 318 345 333 332 352 0 345 344 347 350 357 349 342 337 333 335 351 345 344 348 346 355
249 254 268 270 273 246 255 267 275 285 284 272 282 275 269 269 244 253 262 277 305 303 337 339 314 325 348 339 341 349 351 353 336 328 329 323 325 349 340 339 357 346 356
256 248 264 268 268 254 250 264 276 274 273 265 268 261 261 258 258 257 237 234 233 268 281 10 311 333 332 332 353 352 358 342 335 327 322 315 330 343 344 338 351 332 339
230 237 253 261 264 266 262 256 256 279 282 287 271 272 253 253 270 265 249 228 208 262 245 218 297 318 326 318 19 3 350 345 340 335 326 319 347 348 349 337 352 331 348
187 224 259 274 270 268 268 271 269 266 281 289 286 270 266 242 236 245 234 223 231 222 296 224 266 306 313 321 23 355 351 347 342 337 331 326 344 336 349 341 344 348 354